sat.trackr.live / text

‹ back to catalog

STARLINK-3250

NORAD 49749 · 2021-115AB

PAYLOAD ACTIVE UNKNOWN

§ Identity

Operator
Country
US
Launch date
2021-12-02
Launch site
AFETR
Launch vehicle
Mass (kg)
RCS (m²)

Purposes: comms

External: N2YO · Heavens-Above · Gunter

§ Orbital elements

Epoch: 2026-09-19T05:04:39.519264Z

Period
94.01 min
Inclination
53.1624°
Eccentricity
0.0001334
Mean motion
15.31699612 rev/d
Perigee alt
469.8 km
Apogee alt
471.7 km
Semi-major
6,848.9 km
B*
2.8744e-6
RAAN
345.8671°
Arg perigee
74.2121°
Mean anomaly
285.9028°
Rev number
26,494

§ Raw data

STARLINK-32501 49749U 21115AB  26262.21156851 -.00000276  00000+0  28744-5 0  99952 49749  53.1624 345.8671 0001334  74.2121 285.9028 15.31699612264940

JSON: /api/v1/satellites/49749 · /tle

For live sub-satellite position, see the globe view (requires WebGL).

§ Visibility from observer

Set your observer location to see the next 7 days of passes ≥ 10°. The values pass through the URL so the page stays shareable.

No JS? Fill the form by hand. The geolocation button needs JavaScript.